{"data":{"norad_id":58608,"intl_designator":"2023-200V","name":"STARLINK-31067","alt_names":[],"object_type":"PAYLOAD","status":"ACTIVE","operator":null,"country":"US","launch_date":"2023-12-19","launch_site_code":"AFETR","launch_vehicle":null,"mission":null,"orbit_class":"UNKNOWN","rcs_meters":null,"size_class":null,"mass_kg":null,"dimensions":null,"purposes":["comms"],"wikipedia_slug":null,"has_3d_model":false,"image_url":null,"decayed_at":null,"tle_current":{"epoch":"2026-05-25T03:35:29.689152Z","epoch_age_seconds":72487,"freshness":"FRESH","line1":"1 58608U 23200V   26145.14964918 -.00002011  00000+0 -63545-4 0  9996","line2":"2 58608  43.0016  97.1053 0001227 265.9617  94.1094 15.27586638135306","mean_motion":15.27586638,"eccentricity":0.0001227,"inclination_deg":43.0016,"raan_deg":97.1053,"arg_perigee_deg":265.9617,"mean_anomaly_deg":94.1094,"bstar":-6.3545e-5,"rev_number":13530,"period_min":94.266339085378,"perigee_km":482.18735445648,"apogee_km":483.87108464676,"semimajor_km":6861.1662195516,"source":"CELESTRAK","updated_at":"2026-05-25T13:38:18.704257Z"}}}